When you browse on this site, cookies collect data to enhance your experience and personalize the content and advertising you see.
Visit our Privacy Policy to learn more. By continuing to use the site, you agree to this use of cookies and data.
  • In Romania
  • List of Countries
  • For 7 days
  • Water Temperature
  • Satellite Maps
  • Weather Map
  • Weather Widgets
  • user-avatar
    Login

    Hourly Weather Búðardalur

    Today, 21 January, Monday

    Time Temperature Precipitation Wind Pressure Humidity
    00:00 -2°C° 0.1 mm 7 mps 735 mmHg 84%
    01:00 -1°C° 0.1 mm 5 mps 735 mmHg 86%
    02:00 -2°C° 0.1 mm 4 mps 735 mmHg 87%
    03:00 -2°C° 0.4 mm 3 mps 734 mmHg 90%
    04:00 -2°C° 0.4 mm 3 mps 733 mmHg 92%
    05:00 -2°C° 0.4 mm 2 mps 733 mmHg 94%
    06:00 -2°C° 0.4 mm 2 mps 732 mmHg 94%
    07:00 -3°C° 0.4 mm 2 mps 732 mmHg 93%
    08:00 -3°C° 0.4 mm 2 mps 732 mmHg 93%
    09:00 -4°C° 0 mm 2 mps 731 mmHg 92%
    10:00 -4°C° 0 mm 2 mps 731 mmHg 92%
    11:00 -5°C° 0 mm 2 mps 731 mmHg 91%
    12:00 -5°C° 0 mm 2 mps 731 mmHg 88%
    13:00 -6°C° 0 mm 2 mps 730 mmHg 86%
    14:00 -6°C° 0 mm 2 mps 730 mmHg 83%
    15:00 -5°C° 0.2 mm 2 mps 730 mmHg 85%
    16:00 -6°C° 0.2 mm 3 mps 730 mmHg 87%
    17:00 -5°C° 0.2 mm 3 mps 730 mmHg 89%
    18:00 -5°C° 0.6 mm 3 mps 731 mmHg 88%
    19:00 -4°C° 0.6 mm 2 mps 731 mmHg 87%
    20:00 -4°C° 0.6 mm 2 mps 732 mmHg 85%
    21:00 -4°C° 0 mm 2 mps 733 mmHg 85%
    22:00 -5°C° 0 mm 3 mps 733 mmHg 84%
    23:00 -5°C° 0 mm 3 mps 734 mmHg 83%

    Tomorrow, 22 January, Tuesday

    Time Temperature Precipitation Wind Pressure Humidity
    00:00 -5°C° 0.1 mm 3 mps 735 mmHg 84%
    01:00 -4°C° 0.1 mm 4 mps 736 mmHg 84%
    02:00 -4°C° 0.1 mm 4 mps 737 mmHg 85%
    03:00 -5°C° 0 mm 4 mps 738 mmHg 83%
    04:00 -5°C° 0 mm 3 mps 738 mmHg 80%
    05:00 -5°C° 0 mm 3 mps 739 mmHg 78%
    06:00 -6°C° 0.1 mm 3 mps 740 mmHg 81%
    07:00 -6°C° 0.1 mm 3 mps 741 mmHg 84%
    08:00 -6°C° 0.1 mm 3 mps 742 mmHg 88%
    09:00 -6°C° 0.1 mm 3 mps 742 mmHg 88%
    10:00 -6°C° 0.1 mm 3 mps 743 mmHg 88%
    11:00 -5°C° 0.1 mm 3 mps 743 mmHg 88%
    12:00 -5°C° 0.1 mm 3 mps 744 mmHg 87%
    13:00 -5°C° 0.1 mm 3 mps 744 mmHg 87%
    14:00 -5°C° 0.1 mm 3 mps 745 mmHg 86%
    15:00 -5°C° 0.2 mm 3 mps 745 mmHg 87%
    16:00 -5°C° 0.2 mm 3 mps 745 mmHg 87%
    17:00 -5°C° 0.2 mm 3 mps 746 mmHg 88%
    18:00 -5°C° 0.1 mm 3 mps 746 mmHg 88%
    19:00 -5°C° 0.1 mm 3 mps 746 mmHg 87%
    20:00 -5°C° 0.1 mm 3 mps 747 mmHg 87%
    21:00 -6°C° 0 mm 3 mps 747 mmHg 87%
    22:00 -6°C° 0 mm 3 mps 747 mmHg 87%
    23:00 -6°C° 0 mm 3 mps 748 mmHg 87%

    Day after tomorrow, 23 January, Wednesday

    Time Temperature Precipitation Wind Pressure Humidity
    00:00 -6°C° 0 mm 3 mps 748 mmHg 87%
    01:00 -7°C° 0 mm 3 mps 748 mmHg 87%
    02:00 -7°C° 0 mm 3 mps 748 mmHg 87%
    03:00 -7°C° 0 mm 3 mps 748 mmHg 87%
    04:00 -7°C° 0 mm 2 mps 749 mmHg 87%
    05:00 -7°C° 0 mm 2 mps 749 mmHg 86%
    06:00 -6°C° 0.1 mm 2 mps 749 mmHg 86%
    07:00 -6°C° 0.1 mm 2 mps 749 mmHg 87%
    08:00 -6°C° 0.1 mm 2 mps 750 mmHg 87%
    09:00 -6°C° 0.1 mm 2 mps 750 mmHg 87%
    10:00 -6°C° 0.1 mm 2 mps 750 mmHg 87%
    11:00 -5°C° 0.1 mm 2 mps 750 mmHg 88%
    12:00 -6°C° 0 mm 2 mps 751 mmHg 87%
    13:00 -6°C° 0 mm 2 mps 751 mmHg 86%
    14:00 -6°C° 0 mm 2 mps 751 mmHg 85%
    15:00 -7°C° 0 mm 2 mps 751 mmHg 84%
    16:00 -7°C° 0 mm 2 mps 751 mmHg 83%
    17:00 -7°C° 0 mm 2 mps 751 mmHg 82%
    18:00 -7°C° 0 mm 2 mps 750 mmHg 81%
    19:00 -6°C° 0 mm 2 mps 750 mmHg 80%
    20:00 -4°C° 0 mm 1 mps 750 mmHg 79%
    21:00 -6°C° 0.1 mm 2 mps 750 mmHg 80%
    22:00 -5°C° 0.1 mm 2 mps 750 mmHg 82%
    23:00 -5°C° 0.1 mm 2 mps 749 mmHg 83%

    24 January, Thursday

    Time Temperature Precipitation Wind Pressure Humidity
    00:00 -5°C° 0.4 mm 2 mps 749 mmHg 86%
    01:00 -4°C° 0.4 mm 2 mps 749 mmHg 89%
    02:00 -5°C° 0.4 mm 3 mps 748 mmHg 92%
    03:00 -5°C° 0.4 mm 3 mps 747 mmHg 92%
    04:00 -5°C° 0.4 mm 3 mps 747 mmHg 93%
    05:00 -5°C° 0.4 mm 3 mps 746 mmHg 93%
    06:00 -5°C° 0.2 mm 3 mps 745 mmHg 93%
    07:00 -5°C° 0.2 mm 3 mps 745 mmHg 93%
    08:00 -5°C° 0.2 mm 3 mps 744 mmHg 92%
    09:00 -5°C° 0.7 mm 4 mps 744 mmHg 93%
    10:00 -5°C° 0.7 mm 4 mps 743 mmHg 94%
    11:00 -5°C° 0.7 mm 4 mps 743 mmHg 94%
    12:00 -4°C° 0.6 mm 4 mps 743 mmHg 94%
    13:00 -5°C° 0.6 mm 5 mps 742 mmHg 94%
    14:00 -5°C° 0.6 mm 5 mps 742 mmHg 93%
    15:00 -4°C° 0.5 mm 4 mps 742 mmHg 93%
    16:00 -3°C° 0.5 mm 4 mps 743 mmHg 93%
    17:00 -3°C° 0.5 mm 4 mps 743 mmHg 93%
    18:00 -4°C° 0.6 mm 5 mps 744 mmHg 92%
    19:00 -4°C° 0.6 mm 6 mps 745 mmHg 92%
    20:00 -3°C° 0.6 mm 7 mps 746 mmHg 92%
    21:00 -3°C° 0.4 mm 7 mps 746 mmHg 90%
    22:00 -4°C° 0.4 mm 8 mps 747 mmHg 88%
    23:00 -4°C° 0.4 mm 8 mps 748 mmHg 86%

    25 January, Friday

    Time Temperature Precipitation Wind Pressure Humidity
    00:00 -4°C° 0.1 mm 7 mps 749 mmHg 86%
    01:00 -4°C° 0.1 mm 5 mps 750 mmHg 86%
    02:00 -4°C° 0.1 mm 4 mps 751 mmHg 85%
    03:00 -4°C° 0.2 mm 4 mps 751 mmHg 86%
    04:00 -4°C° 0.2 mm 3 mps 752 mmHg 86%
    05:00 -2°C° 0.2 mm 3 mps 752 mmHg 86%
    06:00 -5°C° 0 mm 3 mps 753 mmHg 85%
    07:00 -5°C° 0 mm 2 mps 753 mmHg 84%
    08:00 -6°C° 0 mm 2 mps 754 mmHg 83%
    09:00 -6°C° 0 mm 2 mps 754 mmHg 83%
    10:00 -4°C° 0 mm 1 mps 755 mmHg 84%
    11:00 -6°C° 0 mm 1 mps 755 mmHg 84%
    12:00 -4°C° 0.2 mm 1 mps 755 mmHg 86%
    13:00 -3°C° 0.2 mm 1 mps 755 mmHg 89%
    14:00 -3°C° 0.2 mm 1 mps 756 mmHg 91%
    15:00 -4°C° 0.4 mm 2 mps 756 mmHg 90%
    16:00 -4°C° 0.4 mm 2 mps 756 mmHg 90%
    17:00 -4°C° 0.4 mm 3 mps 756 mmHg 89%
    18:00 -4°C° 0 mm 3 mps 757 mmHg 87%
    19:00 -5°C° 0 mm 4 mps 757 mmHg 84%
    20:00 -6°C° 0 mm 5 mps 758 mmHg 82%
    21:00 -7°C° 0 mm 5 mps 758 mmHg 82%
    22:00 -7°C° 0 mm 4 mps 759 mmHg 82%
    23:00 -7°C° 0 mm 4 mps 759 mmHg 81%

    26 January, Saturday

    Time Temperature Precipitation Wind Pressure Humidity
    00:00 -7°C° 0 mm 4 mps 759 mmHg 82%
    01:00 -8°C° 0 mm 4 mps 760 mmHg 83%
    02:00 -8°C° 0 mm 4 mps 760 mmHg 84%
    03:00 -7°C° 0 mm 3 mps 761 mmHg 83%
    04:00 -7°C° 0 mm 3 mps 761 mmHg 83%
    05:00 -7°C° 0 mm 3 mps 761 mmHg 82%
    06:00 -7°C° 0 mm 2 mps 761 mmHg 83%
    07:00 -8°C° 0 mm 2 mps 762 mmHg 83%
    08:00 -8°C° 0 mm 1 mps 762 mmHg 84%
    09:00 -8°C° 0 mm 1 mps 762 mmHg 84%
    10:00 -8°C° 0 mm 1 mps 762 mmHg 85%
    11:00 -9°C° 0 mm 1 mps 762 mmHg 86%
    12:00 -9°C° 0 mm 1 mps 762 mmHg 86%
    13:00 -8°C° 0 mm 1 mps 762 mmHg 86%
    14:00 -8°C° 0 mm 1 mps 762 mmHg 85%
    15:00 -9°C° 0 mm 1 mps 762 mmHg 85%
    16:00 -9°C° 0 mm 1 mps 762 mmHg 85%
    17:00 -9°C° 0 mm 1 mps 762 mmHg 85%
    18:00 -9°C° 0 mm 1 mps 762 mmHg 84%
    19:00 -10°C° 0 mm 1 mps 763 mmHg 84%
    20:00 -10°C° 0 mm 1 mps 763 mmHg 83%
    21:00 -10°C° 0 mm 1 mps 763 mmHg 81%
    22:00 -10°C° 0 mm 1 mps 763 mmHg 79%
    23:00 -10°C° 0 mm 1 mps 763 mmHg 76%
    Show more